Time,TemperatureF,DewpointF,PressureIn,WindDirection,WindDirectionDegrees,WindSpeedMPH,WindSpeedGustMPH,Humidity,HourlyPrecipIn,Conditions,Clouds,dailyrainin,SoftwareType,DateUTC
2013-03-14 00:00:00,26.1,-10.5,29.88,SSW,210,4.0,5.8,19,0.00,,---,0.00,VWS V14.01,2013-03-14 04:00:00,
2013-03-14 00:03:00,25.9,-10.7,29.88,WSW,244,3.1,3.1,19,0.00,,---,0.00,VWS V14.01,2013-03-14 04:03:00,
2013-03-14 00:04:00,25.9,-10.7,29.88,WSW,254,3.1,3.1,19,0.00,,---,0.00,VWS V14.01,2013-03-14 04:04:00,
2013-03-14 00:09:00,25.7,-10.9,29.88,NNW,343,6.3,6.3,19,0.00,,---,0.00,VWS V14.01,2013-03-14 04:09:00,
2013-03-14 00:15:00,25.9,-10.7,29.91,West,271,5.4,5.4,19,0.00,,---,0.00,VWS V14.01,2013-03-14 04:15:00,
2013-03-14 00:21:00,25.7,-10.9,29.91,WSW,238,3.1,3.6,19,0.00,,---,0.00,VWS V14.01,2013-03-14 04:21:00,
2013-03-14 00:26:00,25.7,-10.9,29.91,West,265,4.0,4.0,19,0.00,,---,0.00,VWS V14.01,2013-03-14 04:26:00,
2013-03-14 00:32:00,26.1,0.2,29.88,SW,227,3.1,3.1,32,0.00,,---,0.00,VWS V14.01,2013-03-14 04:32:00,
2013-03-14 00:38:00,26.1,-10.5,29.88,West,259,3.1,3.1,19,0.00,,---,0.00,VWS V14.01,2013-03-14 04:38:00,
2013-03-14 00:44:00,25.5,-11.0,29.91,SSW,197,3.6,3.6,19,0.00,,---,0.00,VWS V14.01,2013-03-14 04:44:00,
2013-03-14 00:50:00,25.3,-11.1,29.91,West,260,3.1,3.1,19,0.00,,---,0.00,VWS V14.01,2013-03-14 04:50:00,
2013-03-14 00:55:00,25.3,-11.1,29.91,WSW,247,4.0,4.0,19,0.00,,---,0.00,VWS V14.01,2013-03-14 04:55:00,
2013-03-14 01:00:00,25.2,-11.3,29.91,SW,235,3.1,3.6,19,0.00,,---,0.00,VWS V14.01,2013-03-14 05:00:00,
2013-03-14 01:07:00,25.2,-11.3,29.91,SW,232,3.1,4.0,19,0.00,,---,0.00,VWS V14.01,2013-03-14 05:07:00,
2013-03-14 01:13:00,25.0,-11.4,29.91,SW,234,3.6,3.6,19,0.00,,---,0.00,VWS V14.01,2013-03-14 05:13:00,
2013-03-14 01:18:00,24.8,-11.6,29.91,SW,233,4.0,4.0,19,0.00,,---,0.00,VWS V14.01,2013-03-14 05:18:00,
2013-03-14 01:24:00,24.8,-11.6,29.91,South,180,3.1,3.1,19,0.00,,---,0.00,VWS V14.01,2013-03-14 05:24:00,
2013-03-14 01:29:00,24.8,-11.6,29.91,WSW,252,3.6,3.6,19,0.00,,---,0.00,VWS V14.01,2013-03-14 05:29:00,
2013-03-14 01:35:00,25.0,-11.4,29.91,SW,226,2.7,2.7,19,0.00,,---,0.00,VWS V14.01,2013-03-14 05:35:00,
2013-03-14 01:41:00,25.0,-11.4,29.91,SSE,167,2.2,3.6,19,0.00,,---,0.00,VWS V14.01,2013-03-14 05:41:00,
2013-03-14 01:47:00,24.4,-11.9,29.91,West,259,2.2,2.2,19,0.00,,---,0.00,VWS V14.01,2013-03-14 05:47:00,
2013-03-14 01:53:00,24.3,-12.1,29.91,SW,233,2.2,2.2,19,0.00,,---,0.00,VWS V14.01,2013-03-14 05:53:00,
2013-03-14 01:58:00,24.3,-12.1,29.91,SSW,203,3.1,3.1,19,0.00,,---,0.00,VWS V14.01,2013-03-14 05:58:00,
2013-03-14 02:03:00,24.1,-12.2,29.91,SW,216,2.2,2.2,19,0.00,,---,0.00,VWS V14.01,2013-03-14 06:03:00,
2013-03-14 02:09:00,24.1,-12.2,29.91,SW,230,3.1,3.1,19,0.00,,---,0.00,VWS V14.01,2013-03-14 06:09:00,
2013-03-14 02:14:00,23.9,-12.4,29.91,SW,224,3.6,3.6,19,0.00,,---,0.00,VWS V14.01,2013-03-14 06:14:00,
2013-03-14 02:20:00,24.3,-1.3,29.91,SW,218,3.1,3.1,32,0.00,,---,0.00,VWS V14.01,2013-03-14 06:20:00,
2013-03-14 02:25:00,24.3,-1.3,29.91,WSW,244,0.0,2.7,32,0.00,,---,0.00,VWS V14.01,2013-03-14 06:25:00,
2013-03-14 02:31:00,24.1,-12.2,29.94,WSW,240,2.7,2.7,19,0.00,,---,0.00,VWS V14.01,2013-03-14 06:31:00,
2013-03-14 02:36:00,23.5,-9.7,29.94,WSW,241,2.7,2.7,22,0.00,,---,0.00,VWS V14.01,2013-03-14 06:36:00,
2013-03-14 02:41:00,23.5,-9.7,29.94,WSW,241,2.7,2.7,22,0.00,,---,0.00,VWS V14.01,2013-03-14 06:41:00,
2013-03-14 02:46:00,23.5,-9.7,29.94,WSW,251,2.7,2.7,22,0.00,,---,0.00,VWS V14.01,2013-03-14 06:46:00,
2013-03-14 02:52:00,23.4,-9.9,29.94,WNW,284,2.7,2.7,22,0.00,,---,0.00,VWS V14.01,2013-03-14 06:52:00,
2013-03-14 02:58:00,23.4,-9.9,29.94,WNW,284,2.7,2.7,22,0.00,,---,0.00,VWS V14.01,2013-03-14 06:58:00,
2013-03-14 03:03:00,23.2,-10.0,29.94,WSW,241,2.7,2.7,22,0.00,,---,0.00,VWS V14.01,2013-03-14 07:03:00,
2013-03-14 03:09:00,23.2,-10.0,29.94,WSW,241,2.2,2.2,22,0.00,,---,0.00,VWS V14.01,2013-03-14 07:09:00,
2013-03-14 03:14:00,23.5,-9.7,29.94,SW,226,2.2,2.2,22,0.00,,---,0.00,VWS V14.01,2013-03-14 07:14:00,
2013-03-14 05:08:00,22.3,-6.6,29.94,WSW,250,2.7,2.7,27,0.00,,---,0.00,VWS V14.01,2013-03-14 09:08:00,
2013-03-14 05:14:00,22.3,-4.4,29.94,WSW,253,0.0,3.6,30,0.00,,---,0.00,VWS V14.01,2013-03-14 09:14:00,
2013-03-14 05:19:00,23.2,5.5,29.94,SW,232,2.7,2.7,46,0.00,,---,0.00,VWS V14.01,2013-03-14 09:19:00,
2013-03-14 05:25:00,23.7,6.0,29.94,SW,234,2.2,2.7,46,0.00,,---,0.00,VWS V14.01,2013-03-14 09:25:00,
2013-03-14 05:30:00,24.3,6.9,29.94,WSW,240,2.7,2.7,47,0.00,,---,0.00,VWS V14.01,2013-03-14 09:30:00,
2013-03-14 05:36:00,23.2,-1.6,29.94,WSW,254,4.0,5.8,33,0.00,,---,0.00,VWS V14.01,2013-03-14 09:36:00,
2013-03-14 05:41:00,22.6,-2.8,29.94,SW,222,0.0,0.0,32,0.00,,---,0.00,VWS V14.01,2013-03-14 09:41:00,
2013-03-14 05:46:00,22.3,-2.4,29.94,SW,235,0.0,0.0,33,0.00,,---,0.00,VWS V14.01,2013-03-14 09:46:00,
2013-03-14 05:52:00,22.6,-0.3,29.94,WSW,246,0.0,0.0,36,0.00,,---,0.00,VWS V14.01,2013-03-14 09:52:00,
2013-03-14 05:58:00,22.6,-0.3,29.91,SSW,213,0.0,3.1,36,0.00,,---,0.00,VWS V14.01,2013-03-14 09:58:00,
2013-03-14 06:04:00,22.1,-2.6,29.91,SW,231,0.0,0.0,33,0.00,,---,0.00,VWS V14.01,2013-03-14 10:04:00,
2013-03-14 06:09:00,21.9,-2.8,29.91,SSW,195,3.1,3.1,33,0.00,,---,0.00,VWS V14.01,2013-03-14 10:09:00,
2013-03-14 06:15:00,21.7,-2.9,29.94,SW,224,0.0,2.2,33,0.00,,---,0.00,VWS V14.01,2013-03-14 10:15:00,
2013-03-14 06:21:00,21.6,-3.1,29.94,SW,221,3.6,5.4,33,0.00,,---,0.00,VWS V14.01,2013-03-14 10:21:00,
2013-03-14 06:27:00,21.4,-3.2,29.94,SW,223,0.0,2.7,33,0.00,,---,0.00,VWS V14.01,2013-03-14 10:27:00,
2013-03-14 06:33:00,21.4,-2.0,29.94,SW,223,0.0,0.0,35,0.00,,---,0.00,VWS V14.01,2013-03-14 10:33:00,
2013-03-14 06:39:00,21.9,3.4,29.94,SW,225,0.0,0.0,44,0.00,,---,0.00,VWS V14.01,2013-03-14 10:39:00,
2013-03-14 06:44:00,23.0,8.9,29.94,SSW,200,0.0,0.0,54,0.00,,---,0.00,VWS V14.01,2013-03-14 10:44:00,
2013-03-14 06:50:00,22.5,7.1,29.94,WSW,241,3.1,3.1,51,0.00,,---,0.00,VWS V14.01,2013-03-14 10:50:00,
2013-03-14 06:55:00,21.4,-2.0,29.94,SW,221,2.2,2.7,35,0.00,,---,0.00,VWS V14.01,2013-03-14 10:55:00,
2013-03-14 07:01:00,21.2,-2.8,29.94,SW,221,0.0,0.0,34,0.00,,---,0.00,VWS V14.01,2013-03-14 11:01:00,
2013-03-14 07:07:00,20.8,-3.1,29.94,SSW,211,0.0,0.0,34,0.00,,---,0.00,VWS V14.01,2013-03-14 11:07:00,
2013-03-14 07:12:00,20.7,-2.7,29.94,SSW,211,0.0,0.0,35,0.00,,---,0.00,VWS V14.01,2013-03-14 11:12:00,
2013-03-14 07:18:00,20.3,-2.4,29.94,SSW,197,0.0,0.0,36,0.00,,---,0.00,VWS V14.01,2013-03-14 11:18:00,
2013-03-14 07:24:00,20.1,-2.0,29.94,SSW,197,0.0,0.0,37,0.00,,---,0.00,VWS V14.01,2013-03-14 11:24:00,
2013-03-14 07:29:00,19.9,-1.6,29.94,SSW,197,0.0,0.0,38,0.00,,---,0.00,VWS V14.01,2013-03-14 11:29:00,
2013-03-14 07:35:00,22.3,9.8,29.94,SSW,206,0.0,0.0,58,0.00,,---,0.00,VWS V14.01,2013-03-14 11:35:00,
2013-03-14 07:40:00,22.1,10.7,29.94,SW,220,0.0,0.0,61,0.00,,---,0.00,VWS V14.01,2013-03-14 11:40:00,
2013-03-14 07:45:00,20.8,6.4,29.94,SW,220,3.1,3.1,53,0.00,,---,0.00,VWS V14.01,2013-03-14 11:45:00,
2013-03-14 07:50:00,20.3,0.9,29.94,SW,224,0.0,2.2,42,0.00,,---,0.00,VWS V14.01,2013-03-14 11:50:00,
2013-03-14 07:56:00,20.5,-0.5,29.94,South,186,3.1,3.1,39,0.00,,---,0.00,VWS V14.01,2013-03-14 11:56:00,
2013-03-14 08:02:00,20.7,-0.9,29.94,WSW,249,2.2,3.6,38,0.00,,---,0.00,VWS V14.01,2013-03-14 12:02:00,
2013-03-14 08:07:00,20.7,-1.5,29.94,SSW,209,2.7,3.1,37,0.00,,---,0.00,VWS V14.01,2013-03-14 12:07:00,
2013-03-14 08:13:00,20.7,-1.5,29.97,SW,221,2.7,3.6,37,0.00,,---,0.00,VWS V14.01,2013-03-14 12:13:00,
2013-03-14 08:18:00,21.9,4.8,29.97,WSW,246,3.6,3.6,47,0.00,,---,0.00,VWS V14.01,2013-03-14 12:18:00,
2013-03-14 08:23:00,22.1,4.0,29.97,SW,226,3.1,3.6,45,0.00,,---,0.00,VWS V14.01,2013-03-14 12:23:00,
2013-03-14 08:28:00,21.9,-1.5,29.97,WSW,253,0.0,0.0,35,0.00,,---,0.00,VWS V14.01,2013-03-14 12:28:00,
2013-03-14 08:33:00,21.9,-1.5,29.97,SW,228,2.7,3.6,35,0.00,,---,0.00,VWS V14.01,2013-03-14 12:33:00,
2013-03-14 08:39:00,22.3,-1.8,29.97,SW,220,2.7,3.1,34,0.00,,---,0.00,VWS V14.01,2013-03-14 12:39:00,
2013-03-14 08:45:00,22.8,-1.3,29.97,ESE,113,3.1,3.6,34,0.00,,---,0.00,VWS V14.01,2013-03-14 12:45:00,
2013-03-14 08:50:00,22.8,-2.0,29.97,South,188,3.1,3.6,33,0.00,,---,0.00,VWS V14.01,2013-03-14 12:50:00,
2013-03-14 08:56:00,23.4,-1.5,29.97,WSW,248,3.1,4.9,33,0.00,,---,0.00,VWS V14.01,2013-03-14 12:56:00,
2013-03-14 09:02:00,24.4,5.7,29.97,SW,236,3.6,5.4,44,0.00,,---,0.00,VWS V14.01,2013-03-14 13:02:00,
2013-03-14 09:07:00,24.4,-0.5,29.97,SW,219,3.1,4.0,33,0.00,,---,0.00,VWS V14.01,2013-03-14 13:07:00,
2013-03-14 09:13:00,25.0,-0.7,29.97,West,279,3.1,3.1,32,0.00,,---,0.00,VWS V14.01,2013-03-14 13:13:00,
2013-03-14 09:18:00,25.3,-1.1,29.97,WSW,249,3.1,3.1,31,0.00,,---,0.00,VWS V14.01,2013-03-14 13:18:00,
2013-03-14 09:23:00,25.9,-2.0,29.97,NW,320,2.7,3.1,29,0.00,,---,0.00,VWS V14.01,2013-03-14 13:23:00,
2013-03-14 09:28:00,26.2,-0.3,29.97,WSW,253,2.7,5.8,31,0.00,,---,0.00,VWS V14.01,2013-03-14 13:28:00,
2013-03-14 09:34:00,26.4,-1.5,29.97,West,266,2.7,4.9,29,0.00,,---,0.00,VWS V14.01,2013-03-14 13:34:00,
2013-03-14 09:39:00,26.8,-1.9,29.97,WSW,248,2.7,4.0,28,0.00,,---,0.00,VWS V14.01,2013-03-14 13:39:00,
2013-03-14 09:45:00,27.3,-1.5,29.97,East,86,2.7,4.0,28,0.00,,---,0.00,VWS V14.01,2013-03-14 13:45:00,
2013-03-14 09:50:00,27.9,-1.0,29.97,SW,234,6.3,7.2,28,0.00,,---,0.00,VWS V14.01,2013-03-14 13:50:00,
2013-03-14 09:56:00,28.0,-5.0,29.97,SW,235,3.6,4.9,23,0.00,,---,0.00,VWS V14.01,2013-03-14 13:56:00,
2013-03-14 10:01:00,28.2,-4.8,29.97,WSW,237,3.1,3.6,23,0.00,,---,0.00,VWS V14.01,2013-03-14 14:01:00,
2013-03-14 10:06:00,28.6,-7.4,29.97,ESE,113,3.6,3.6,20,0.00,,---,0.00,VWS V14.01,2013-03-14 14:06:00,
2013-03-14 10:12:00,29.1,-6.9,29.97,SSW,196,3.6,3.6,20,0.00,,---,0.00,VWS V14.01,2013-03-14 14:12:00,
2013-03-14 10:17:00,28.9,-7.1,29.97,West,261,5.8,5.8,20,0.00,,---,0.00,VWS V14.01,2013-03-14 14:17:00,
2013-03-14 10:23:00,29.5,-6.6,29.97,WNW,292,4.9,4.9,20,0.00,,---,0.00,VWS V14.01,2013-03-14 14:23:00,
2013-03-14 10:28:00,30.2,-6.0,29.97,NW,317,4.0,4.0,20,0.00,,---,0.00,VWS V14.01,2013-03-14 14:28:00,
2013-03-14 10:34:00,30.2,-6.0,29.97,NNW,345,3.6,4.0,20,0.00,,---,0.00,VWS V14.01,2013-03-14 14:34:00,
2013-03-14 10:40:00,30.6,-5.7,29.97,WNW,297,5.4,5.4,20,0.00,,---,0.00,VWS V14.01,2013-03-14 14:40:00,
2013-03-14 10:45:00,31.6,-7.0,29.97,East,97,4.0,4.0,18,0.00,,---,0.00,VWS V14.01,2013-03-14 14:45:00,
2013-03-14 10:50:00,31.1,-5.3,29.97,West,277,3.6,4.0,20,0.00,,---,0.00,VWS V14.01,2013-03-14 14:50:00,
2013-03-14 10:55:00,31.1,-7.4,29.97,West,278,4.9,8.3,18,0.00,,---,0.00,VWS V14.01,2013-03-14 14:55:00,
2013-03-14 11:00:00,31.5,-7.2,29.97,SSE,165,4.0,5.8,18,0.00,,---,0.00,VWS V14.01,2013-03-14 15:00:00,
2013-03-14 11:06:00,30.9,-7.6,29.97,SW,219,3.1,3.1,18,0.00,,---,0.00,VWS V14.01,2013-03-14 15:06:00,
2013-03-14 11:12:00,31.3,-7.3,29.97,WNW,290,2.7,4.0,18,0.00,,---,0.00,VWS V14.01,2013-03-14 15:12:00,
2013-03-14 11:17:00,32.0,-6.7,29.97,WSW,240,5.4,6.3,18,0.00,,---,0.00,VWS V14.01,2013-03-14 15:17:00,
2013-03-14 11:22:00,32.2,-6.6,29.97,WSW,249,4.0,4.0,18,0.00,,---,0.00,VWS V14.01,2013-03-14 15:22:00,
2013-03-14 11:27:00,32.5,-6.2,29.97,SW,225,3.6,4.0,18,0.00,,---,0.00,VWS V14.01,2013-03-14 15:27:00,
2013-03-14 11:33:00,32.9,0.9,29.97,WNW,287,3.6,3.6,25,0.00,,---,0.00,VWS V14.01,2013-03-14 15:33:00,
2013-03-14 11:38:00,33.4,-5.5,29.97,SW,221,3.6,3.6,18,0.00,,---,0.00,VWS V14.01,2013-03-14 15:38:00,
2013-03-14 11:44:00,33.8,-6.4,29.97,WSW,256,4.0,4.0,17,0.00,,---,0.00,VWS V14.01,2013-03-14 15:44:00,
2013-03-14 11:50:00,33.1,-5.8,29.97,SE,139,6.3,6.3,18,0.00,,---,0.00,VWS V14.01,2013-03-14 15:50:00,
2013-03-14 11:55:00,33.6,-5.3,29.97,SW,229,3.1,5.8,18,0.00,,---,0.00,VWS V14.01,2013-03-14 15:55:00,
2013-03-14 12:00:00,33.6,-5.3,29.97,NNE,31,3.6,5.4,18,0.00,,---,0.00,VWS V14.01,2013-03-14 16:00:00,
2013-03-14 12:05:00,33.8,-6.4,29.97,NW,320,4.0,5.4,17,0.00,,---,0.00,VWS V14.01,2013-03-14 16:05:00,
2013-03-14 12:11:00,35.1,-5.3,29.97,West,261,2.7,3.6,17,0.00,,---,0.00,VWS V14.01,2013-03-14 16:11:00,
2013-03-14 12:16:00,36.3,-4.3,29.97,SW,235,3.1,5.4,17,0.00,,---,0.00,VWS V14.01,2013-03-14 16:16:00,
2013-03-14 12:22:00,35.2,-5.2,29.97,WSW,253,4.9,6.3,17,0.00,,---,0.00,VWS V14.01,2013-03-14 16:22:00,
2013-03-14 12:27:00,35.1,-7.9,29.94,NW,318,3.1,4.0,15,0.00,,---,0.00,VWS V14.01,2013-03-14 16:27:00,
2013-03-14 12:33:00,36.0,-8.6,29.94,ESE,104,2.7,4.9,14,0.00,,---,0.00,VWS V14.01,2013-03-14 16:33:00,
2013-03-14 12:39:00,36.3,-8.3,29.94,South,180,2.7,5.4,14,0.00,,---,0.00,VWS V14.01,2013-03-14 16:39:00,
2013-03-14 12:44:00,36.1,-8.4,29.97,WSW,248,2.7,5.8,14,0.00,,---,0.00,VWS V14.01,2013-03-14 16:44:00,
2013-03-14 12:49:00,36.3,-8.3,29.97,West,274,3.1,4.0,14,0.00,,---,0.00,VWS V14.01,2013-03-14 16:49:00,
2013-03-14 12:54:00,37.9,-7.0,29.97,SSE,168,0.0,4.0,14,0.00,,---,0.00,VWS V14.01,2013-03-14 16:54:00,
2013-03-14 13:00:00,38.8,-6.3,29.94,SW,221,4.0,7.6,14,0.00,,---,0.00,VWS V14.01,2013-03-14 17:00:00,
2013-03-14 13:05:00,38.1,-6.9,29.94,SW,232,4.0,4.0,14,0.00,,---,0.00,VWS V14.01,2013-03-14 17:05:00,
2013-03-14 13:12:00,39.2,-7.5,29.94,West,276,3.6,6.3,13,0.00,,---,0.00,VWS V14.01,2013-03-14 17:12:00,
2013-03-14 13:18:00,37.6,-7.3,29.94,SSE,165,4.9,5.4,14,0.00,,---,0.00,VWS V14.01,2013-03-14 17:18:00,
2013-03-14 13:24:00,38.1,-6.9,29.94,WSW,239,3.6,3.6,14,0.00,,---,0.00,VWS V14.01,2013-03-14 17:24:00,
2013-03-14 13:29:00,38.8,-6.3,29.94,East,99,3.6,3.6,14,0.00,,---,0.00,VWS V14.01,2013-03-14 17:29:00,
2013-03-14 13:34:00,39.6,-7.2,29.94,SSE,164,5.8,5.8,13,0.00,,---,0.00,VWS V14.01,2013-03-14 17:34:00,
2013-03-14 13:39:00,38.5,-6.6,29.94,SW,221,4.9,8.1,14,0.00,,---,0.00,VWS V14.01,2013-03-14 17:39:00,
2013-03-14 13:45:00,38.3,-6.7,29.94,SW,220,4.9,4.9,14,0.00,,---,0.00,VWS V14.01,2013-03-14 17:45:00,
2013-03-14 13:50:00,37.8,-7.2,29.94,ESE,102,3.1,5.8,14,0.00,,---,0.00,VWS V14.01,2013-03-14 17:50:00,
2013-03-14 13:56:00,39.2,-7.5,29.94,WSW,256,4.9,4.9,13,0.00,,---,0.00,VWS V14.01,2013-03-14 17:56:00,
2013-03-14 14:01:00,38.3,-6.7,29.94,WSW,240,3.1,4.9,14,0.00,,---,0.00,VWS V14.01,2013-03-14 18:01:00,
2013-03-14 14:07:00,38.3,-6.7,29.94,NE,45,3.1,4.0,14,0.00,,---,0.00,VWS V14.01,2013-03-14 18:07:00,
2013-03-14 14:12:00,39.4,-7.4,29.94,WSW,243,2.7,3.6,13,0.00,,---,0.00,VWS V14.01,2013-03-14 18:12:00,
2013-03-14 14:18:00,40.5,-6.5,29.94,SE,134,2.2,4.0,13,0.00,,---,0.00,VWS V14.01,2013-03-14 18:18:00,
2013-03-14 14:24:00,41.0,-6.1,29.94,ESE,111,3.1,4.0,13,0.00,,---,0.00,VWS V14.01,2013-03-14 18:24:00,
2013-03-14 14:29:00,39.4,-7.4,29.91,SSW,211,6.7,6.7,13,0.00,,---,0.00,VWS V14.01,2013-03-14 18:29:00,
2013-03-14 14:35:00,39.4,-7.4,29.91,SSW,198,3.6,5.4,13,0.00,,---,0.00,VWS V14.01,2013-03-14 18:35:00,
2013-03-14 14:42:00,40.3,-6.7,29.91,SW,217,5.4,8.3,13,0.00,,---,0.00,VWS V14.01,2013-03-14 18:42:00,
2013-03-14 14:47:00,39.7,-7.1,29.91,NW,313,4.9,4.9,13,0.00,,---,0.00,VWS V14.01,2013-03-14 18:47:00,
2013-03-14 14:53:00,39.4,-7.4,29.91,SSW,212,5.4,6.3,13,0.00,,---,0.00,VWS V14.01,2013-03-14 18:53:00,
2013-03-14 14:59:00,40.6,-6.4,29.91,SSW,210,2.7,4.9,13,0.00,,---,0.00,VWS V14.01,2013-03-14 18:59:00,
2013-03-14 15:04:00,41.0,-6.1,29.91,SSW,201,4.0,6.3,13,0.00,,---,0.00,VWS V14.01,2013-03-14 19:04:00,
2013-03-14 15:09:00,41.4,-5.8,29.91,SW,226,4.0,4.0,13,0.00,,---,0.00,VWS V14.01,2013-03-14 19:09:00,
2013-03-14 15:15:00,41.0,-6.1,29.91,SW,214,3.6,3.6,13,0.00,,---,0.00,VWS V14.01,2013-03-14 19:15:00,
2013-03-14 15:20:00,40.5,-6.5,29.91,SW,229,2.7,4.0,13,0.00,,---,0.00,VWS V14.01,2013-03-14 19:20:00,
2013-03-14 15:25:00,39.9,-6.9,29.91,WSW,239,3.6,4.0,13,0.00,,---,0.00,VWS V14.01,2013-03-14 19:25:00,
2013-03-14 15:30:00,40.3,-6.7,29.91,WSW,240,3.1,3.6,13,0.00,,---,0.00,VWS V14.01,2013-03-14 19:30:00,
2013-03-14 15:35:00,40.8,-6.2,29.91,WSW,250,2.2,6.3,13,0.00,,---,0.00,VWS V14.01,2013-03-14 19:35:00,
2013-03-14 15:40:00,41.0,-6.1,29.91,WNW,287,2.7,3.1,13,0.00,,---,0.00,VWS V14.01,2013-03-14 19:40:00,
2013-03-14 15:45:00,40.1,-6.8,29.91,WSW,255,4.0,4.5,13,0.00,,---,0.00,VWS V14.01,2013-03-14 19:45:00,
2013-03-14 15:51:00,40.3,-6.7,29.91,WSW,240,3.1,4.0,13,0.00,,---,0.00,VWS V14.01,2013-03-14 19:51:00,
2013-03-14 15:56:00,40.8,-6.2,29.91,East,80,2.7,5.8,13,0.00,,---,0.00,VWS V14.01,2013-03-14 19:56:00,
2013-03-14 16:02:00,40.3,-6.7,29.91,WSW,240,3.1,4.9,13,0.00,,---,0.00,VWS V14.01,2013-03-14 20:02:00,
2013-03-14 16:07:00,40.5,-6.5,29.91,WSW,239,3.1,5.4,13,0.00,,---,0.00,VWS V14.01,2013-03-14 20:07:00,
2013-03-14 16:13:00,39.9,-6.9,29.91,NNW,348,6.3,6.3,13,0.00,,---,0.00,VWS V14.01,2013-03-14 20:13:00,
2013-03-14 16:18:00,40.3,-6.7,29.91,East,87,3.6,5.4,13,0.00,,---,0.00,VWS V14.01,2013-03-14 20:18:00,
2013-03-14 16:24:00,40.3,-6.7,29.91,West,267,3.6,3.6,13,0.00,,---,0.00,VWS V14.01,2013-03-14 20:24:00,
2013-03-14 16:30:00,40.5,-6.5,29.91,WSW,256,6.3,6.3,13,0.00,,---,0.00,VWS V14.01,2013-03-14 20:30:00,
2013-03-14 16:35:00,40.8,-6.2,29.91,SW,225,3.1,3.6,13,0.00,,---,0.00,VWS V14.01,2013-03-14 20:35:00,
2013-03-14 16:41:00,40.8,-6.2,29.91,ESE,122,3.1,4.9,13,0.00,,---,0.00,VWS V14.01,2013-03-14 20:41:00,
2013-03-14 16:47:00,41.0,-6.1,29.91,SSW,197,3.1,3.6,13,0.00,,---,0.00,VWS V14.01,2013-03-14 20:47:00,
2013-03-14 16:52:00,41.0,-6.1,29.91,SE,143,2.7,3.1,13,0.00,,---,0.00,VWS V14.01,2013-03-14 20:52:00,
2013-03-14 16:58:00,40.8,-6.2,29.91,WNW,288,3.1,3.1,13,0.00,,---,0.00,VWS V14.01,2013-03-14 20:58:00,
2013-03-14 17:03:00,41.2,-5.9,29.91,SW,226,2.2,3.1,13,0.00,,---,0.00,VWS V14.01,2013-03-14 21:03:00,
2013-03-14 17:09:00,41.9,-5.3,29.91,SW,216,0.0,3.6,13,0.00,,---,0.00,VWS V14.01,2013-03-14 21:09:00,
2013-03-14 17:15:00,41.5,-5.6,29.88,WNW,298,5.4,5.8,13,0.00,,---,0.00,VWS V14.01,2013-03-14 21:15:00,
2013-03-14 17:20:00,40.1,-6.8,29.88,West,280,3.6,4.0,13,0.00,,---,0.00,VWS V14.01,2013-03-14 21:20:00,
2013-03-14 17:27:00,40.3,-6.7,29.88,WSW,243,4.0,5.4,13,0.00,,---,0.00,VWS V14.01,2013-03-14 21:27:00,
2013-03-14 17:32:00,40.1,-6.8,29.88,WSW,245,2.7,5.4,13,0.00,,---,0.00,VWS V14.01,2013-03-14 21:32:00,
2013-03-14 17:38:00,39.7,-7.1,29.88,SSE,168,4.0,4.0,13,0.00,,---,0.00,VWS V14.01,2013-03-14 21:38:00,
2013-03-14 17:44:00,39.9,-6.9,29.88,WSW,240,3.1,3.1,13,0.00,,---,0.00,VWS V14.01,2013-03-14 21:44:00,
2013-03-14 17:49:00,39.7,-7.1,29.88,SSW,211,4.0,7.6,13,0.00,,---,0.00,VWS V14.01,2013-03-14 21:49:00,
2013-03-14 17:55:00,39.6,-7.2,29.88,WSW,248,2.7,4.0,13,0.00,,---,0.00,VWS V14.01,2013-03-14 21:55:00,
2013-03-14 18:00:00,39.9,-6.9,29.88,SW,233,0.0,2.2,13,0.00,,---,0.00,VWS V14.01,2013-03-14 22:00:00,
2013-03-14 18:06:00,39.7,-7.1,29.88,West,262,4.0,6.3,13,0.00,,---,0.00,VWS V14.01,2013-03-14 22:06:00,
2013-03-14 18:12:00,39.4,-7.4,29.88,West,275,3.6,4.5,13,0.00,,---,0.00,VWS V14.01,2013-03-14 22:12:00,
2013-03-14 18:17:00,39.9,-6.9,29.88,SW,236,3.1,3.1,13,0.00,,---,0.00,VWS V14.01,2013-03-14 22:17:00,
2013-03-14 18:23:00,39.9,-6.9,29.88,WSW,242,2.7,2.7,13,0.00,,---,0.00,VWS V14.01,2013-03-14 22:23:00,
2013-03-14 18:29:00,39.0,-6.1,29.88,SW,222,2.7,3.6,14,0.00,,---,0.00,VWS V14.01,2013-03-14 22:29:00,
2013-03-14 18:34:00,39.0,-6.1,29.88,SW,229,0.0,0.0,14,0.00,,---,0.00,VWS V14.01,2013-03-14 22:34:00,
2013-03-14 18:40:00,38.7,-6.4,29.88,SW,234,3.1,3.6,14,0.00,,---,0.00,VWS V14.01,2013-03-14 22:40:00,
2013-03-14 18:45:00,38.5,-6.6,29.88,SSW,209,0.0,0.0,14,0.00,,---,0.00,VWS V14.01,2013-03-14 22:45:00,
2013-03-14 18:50:00,38.3,-6.7,29.88,NW,323,2.7,3.1,14,0.00,,---,0.00,VWS V14.01,2013-03-14 22:50:00,
2013-03-14 18:55:00,38.1,-6.9,29.88,SSW,199,3.1,3.1,14,0.00,,---,0.00,VWS V14.01,2013-03-14 22:55:00,
2013-03-14 19:01:00,37.9,-7.0,29.85,SW,218,3.1,3.1,14,0.00,,---,0.00,VWS V14.01,2013-03-14 23:01:00,
2013-03-14 19:07:00,37.6,-7.3,29.85,SW,215,0.0,5.4,14,0.00,,---,0.00,VWS V14.01,2013-03-14 23:07:00,
2013-03-14 19:12:00,37.2,-7.6,29.88,SW,218,5.4,5.8,14,0.00,,---,0.00,VWS V14.01,2013-03-14 23:12:00,
2013-03-14 19:18:00,36.9,-7.9,29.88,WSW,240,3.1,3.6,14,0.00,,---,0.00,VWS V14.01,2013-03-14 23:18:00,
2013-03-14 19:23:00,36.7,-8.0,29.88,SW,214,3.1,5.4,14,0.00,,---,0.00,VWS V14.01,2013-03-14 23:23:00,
2013-03-14 19:28:00,36.3,-8.3,29.88,SSW,199,6.3,6.3,14,0.00,,---,0.00,VWS V14.01,2013-03-14 23:28:00,
2013-03-14 19:33:00,36.1,-8.4,29.88,SSE,165,4.0,4.0,14,0.00,,---,0.00,VWS V14.01,2013-03-14 23:33:00,
2013-03-14 19:39:00,35.8,-8.7,29.88,SW,234,0.0,4.0,14,0.00,,---,0.00,VWS V14.01,2013-03-14 23:39:00,
2013-03-14 19:44:00,35.6,-8.9,29.88,WSW,253,0.0,0.0,14,0.00,,---,0.00,VWS V14.01,2013-03-14 23:44:00,
2013-03-14 19:50:00,35.1,-7.9,29.88,SW,220,0.0,0.0,15,0.00,,---,0.00,VWS V14.01,2013-03-14 23:50:00,
2013-03-14 19:55:00,34.9,-8.1,29.88,SW,220,0.0,0.0,15,0.00,,---,0.00,VWS V14.01,2013-03-14 23:55:00,
2013-03-14 20:00:00,34.5,-8.4,29.88,SW,220,0.0,0.0,15,0.00,,---,0.00,VWS V14.01,2013-03-15 00:00:00,
2013-03-14 20:05:00,34.3,-8.5,29.88,SW,220,0.0,0.0,15,0.00,,---,0.00,VWS V14.01,2013-03-15 00:05:00,
2013-03-14 20:11:00,34.0,-8.8,29.88,SW,220,0.0,0.0,15,0.00,,---,0.00,VWS V14.01,2013-03-15 00:11:00,
2013-03-14 20:17:00,33.6,-9.1,29.88,SW,229,0.0,0.0,15,0.00,,---,0.00,VWS V14.01,2013-03-15 00:17:00,
2013-03-14 20:22:00,33.3,-9.4,29.88,SW,229,0.0,0.0,15,0.00,,---,0.00,VWS V14.01,2013-03-15 00:22:00,
2013-03-14 20:28:00,32.9,-9.7,29.88,SW,229,0.0,0.0,15,0.00,,---,0.00,VWS V14.01,2013-03-15 00:28:00,
2013-03-14 20:33:00,32.5,-10.0,29.88,SW,229,0.0,0.0,15,0.00,,---,0.00,VWS V14.01,2013-03-15 00:33:00,
2013-03-14 20:39:00,32.2,-10.3,29.88,SW,229,0.0,0.0,15,0.00,,---,0.00,VWS V14.01,2013-03-15 00:39:00,
2013-03-14 20:44:00,31.8,-10.6,29.85,SW,229,0.0,0.0,15,0.00,,---,0.00,VWS V14.01,2013-03-15 00:44:00,
2013-03-14 20:50:00,31.3,-11.0,29.85,SW,229,0.0,0.0,15,0.00,,---,0.00,VWS V14.01,2013-03-15 00:50:00,
2013-03-14 20:55:00,30.9,-11.3,29.85,SW,229,0.0,0.0,15,0.00,,---,0.00,VWS V14.01,2013-03-15 00:55:00,
2013-03-14 21:02:00,30.4,-11.7,29.85,SW,229,0.0,0.0,15,0.00,,---,0.00,VWS V14.01,2013-03-15 01:02:00,
2013-03-14 21:08:00,30.2,-11.9,29.85,SW,229,0.0,0.0,15,0.00,,---,0.00,VWS V14.01,2013-03-15 01:08:00,
2013-03-14 21:14:00,29.7,-12.3,29.85,SW,229,0.0,0.0,15,0.00,,---,0.00,VWS V14.01,2013-03-15 01:14:00,
2013-03-14 21:19:00,29.3,-12.6,29.85,SW,229,0.0,0.0,15,0.00,,---,0.00,VWS V14.01,2013-03-15 01:19:00,
2013-03-14 21:25:00,29.1,-12.8,29.85,SW,229,0.0,0.0,15,0.00,,---,0.00,VWS V14.01,2013-03-15 01:25:00,
2013-03-14 21:30:00,28.9,-12.9,29.85,SW,229,0.0,0.0,15,0.00,,---,0.00,VWS V14.01,2013-03-15 01:30:00,
2013-03-14 21:36:00,28.6,-13.2,29.85,SW,229,0.0,0.0,15,0.00,,---,0.00,VWS V14.01,2013-03-15 01:36:00,
2013-03-14 21:42:00,28.2,-9.8,29.85,SW,229,0.0,0.0,18,0.00,,---,0.00,VWS V14.01,2013-03-15 01:42:00,
2013-03-14 21:47:00,28.0,-10.0,29.85,SW,229,0.0,0.0,18,0.00,,---,0.00,VWS V14.01,2013-03-15 01:47:00,
2013-03-14 21:53:00,27.7,-10.3,29.85,SW,226,0.0,0.0,18,0.00,,---,0.00,VWS V14.01,2013-03-15 01:53:00,
2013-03-14 21:59:00,27.5,-10.4,29.85,SW,226,0.0,0.0,18,0.00,,---,0.00,VWS V14.01,2013-03-15 01:59:00,
2013-03-14 22:04:00,27.1,-10.7,29.85,SW,226,0.0,0.0,18,0.00,,---,0.00,VWS V14.01,2013-03-15 02:04:00,
2013-03-14 22:10:00,30.9,15.8,29.85,SW,226,0.0,0.0,53,0.00,,---,0.00,VWS V14.01,2013-03-15 02:10:00,
2013-03-14 22:15:00,29.7,13.3,29.85,SW,226,0.0,0.0,50,0.00,,---,0.00,VWS V14.01,2013-03-15 02:15:00,
2013-03-14 22:21:00,28.6,11.4,29.85,SW,226,0.0,0.0,48,0.00,,---,0.00,VWS V14.01,2013-03-15 02:21:00,
2013-03-14 22:27:00,27.9,11.2,29.83,SW,226,0.0,0.0,49,0.00,,---,0.00,VWS V14.01,2013-03-15 02:27:00,
2013-03-14 22:32:00,27.3,8.3,29.83,SW,226,0.0,0.0,44,0.00,,---,0.00,VWS V14.01,2013-03-15 02:32:00,
2013-03-14 22:38:00,27.0,7.5,29.83,SW,226,0.0,0.0,43,0.00,,---,0.00,VWS V14.01,2013-03-15 02:38:00,
2013-03-14 22:43:00,26.6,7.1,29.83,SW,226,0.0,0.0,43,0.00,,---,0.00,VWS V14.01,2013-03-15 02:43:00,
2013-03-14 22:49:00,26.4,6.4,29.83,SW,226,0.0,0.0,42,0.00,,---,0.00,VWS V14.01,2013-03-15 02:49:00,
2013-03-14 22:55:00,26.2,6.3,29.83,SW,226,0.0,0.0,42,0.00,,---,0.00,VWS V14.01,2013-03-15 02:55:00,
2013-03-14 23:00:00,26.1,5.6,29.83,SW,226,0.0,0.0,41,0.00,,---,0.00,VWS V14.01,2013-03-15 03:00:00,
2013-03-14 23:05:00,26.2,5.8,29.83,SW,226,0.0,0.0,41,0.00,,---,0.00,VWS V14.01,2013-03-15 03:05:00,
2013-03-14 23:10:00,26.4,5.4,29.83,SW,226,0.0,0.0,40,0.00,,---,0.00,VWS V14.01,2013-03-15 03:10:00,
2013-03-14 23:16:00,26.6,4.4,29.83,SW,226,0.0,0.0,38,0.00,,---,0.00,VWS V14.01,2013-03-15 03:16:00,
2013-03-14 23:21:00,26.8,3.4,29.83,SW,226,0.0,0.0,36,0.00,,---,0.00,VWS V14.01,2013-03-15 03:21:00,
2013-03-14 23:27:00,26.6,3.3,29.83,SSW,212,0.0,2.7,36,0.00,,---,0.00,VWS V14.01,2013-03-15 03:27:00,
2013-03-14 23:32:00,27.0,3.6,29.83,SW,220,2.2,2.2,36,0.00,,---,0.00,VWS V14.01,2013-03-15 03:32:00,
2013-03-14 23:38:00,27.1,3.1,29.83,SW,220,0.0,0.0,35,0.00,,---,0.00,VWS V14.01,2013-03-15 03:38:00,
2013-03-14 23:44:00,27.7,1.7,29.83,SW,217,0.0,3.1,32,0.00,,---,0.00,VWS V14.01,2013-03-15 03:44:00,
2013-03-14 23:49:00,27.9,1.8,29.83,SW,231,0.0,0.0,32,0.00,,---,0.00,VWS V14.01,2013-03-15 03:49:00,
2013-03-14 23:54:00,27.9,1.2,29.83,SSW,208,2.7,3.6,31,0.00,,---,0.00,VWS V14.01,2013-03-15 03:54:00,
2013-03-14 23:59:00,28.2,1.5,29.80,SSW,210,0.0,0.0,31,0.00,,---,0.00,VWS V14.01,2013-03-15 03:59:00,